Madison, MN

4:38 AM CST on December 06, 2019 (GMT -0600)
Madison-Lac Qui Parle County

Weather History for KDXX - October, 2019

Change the Weather History Date:

Thursday, October 10, 2019

  Actual Average (WUND) Record (WUND)
Temperature  
Mean Temperature 48 °F -  
Max Temperature 60 °F - - (-1)
Min Temperature 37 °F - - (-1)
Degree Days  
Heating Degree Days 16    
Moisture  
Dew Point 41 °F    
Average Humidity 94    
Maximum Humidity 100    
Minimum Humidity 72    
Precipitation  
Precipitation 0.10 in - - ()
Sea Level Pressure  
Sea Level Pressure 29.85 in    
Wind  
Wind Speed 11 mph (NW)    
Max Wind Speed 21 mph    
Max Gust Speed 26 mph    
Visibility 4 miles    
Events Rain , Thunderstorm    
Averages and records for this station are not official NWS values.
T = Trace of Precipitation, MM = Missing Value Source: NWS Daily Summary

Daily Weather History Graph

Daily Weather History Graph

Search for Another Location

Airport or City:

Astronomy

Oct. 10, 2019 Rise Set
Actual Time 7:33 AM CDT 6:48 PM CDT
Civil Twilight 7:04 AM CDT 7:18 PM CDT
Nautical Twilight 6:30 AM CDT 7:52 PM CDT
Astronomical Twilight 5:56 AM CDT 8:26 PM CDT
Moon 6:01 PM CDT (10/10) 4:06 AM CDT (10/10)
Length of Visible Light 12h 13m
Length of Day
11h 15m
Waxing Gibbous, 91% of the Moon is Illuminated
Oct 10
Waxing Gibbous
Oct 13
Full
Oct 21
Last Quarter
Oct 27
New
Nov 4
First Quarter

Hourly Weather History & Observations

Time (CDT) Temp. Windchill Dew Point Humidity Pressure Visibility Wind Dir Wind Speed Gust Speed Precip Events Conditions
12:35 AM 60.8 °F - 51.8 °F 72% 29.87 in 10.0 mi SE 6.9 mph - N/A   Overcast
12:36 AM 60.8 °F - 51.8 °F 72% 29.87 in 10.0 mi SE 8.1 mph - N/A   Overcast
12:55 AM 60.8 °F - 51.8 °F 72% 29.87 in 10.0 mi SE 3.5 mph - N/A   Overcast
12:56 AM 60.8 °F - 51.8 °F 72% 29.87 in 10.0 mi SE 3.5 mph - N/A   Overcast
1:19 AM 55.4 °F - 51.8 °F 88% 29.88 in 10.0 mi NNW 8.1 mph - N/A   Overcast
1:36 AM 55.4 °F - 51.8 °F 88% 29.89 in 10.0 mi NNW 8.1 mph - N/A   Overcast
1:56 AM 53.6 °F - 51.8 °F 94% 29.89 in 5.0 mi NNW 12.7 mph - N/A Rain Rain
2:15 AM 53.6 °F - 51.8 °F 94% 29.88 in 3.0 mi NNW 9.2 mph - N/A   Drizzle
2:35 AM 51.8 °F - 48.2 °F 88% 29.88 in 3.0 mi North 11.5 mph - N/A   Light Drizzle
2:39 AM 51.8 °F - 48.2 °F 88% 29.88 in 3.0 mi NNW 9.2 mph 12.7 mph N/A   Light Drizzle
2:58 AM 50.0 °F - 48.2 °F 94% 29.88 in 2.0 mi NNW 10.4 mph - N/A   Drizzle
3:15 AM 48.2 °F - 48.2 °F 100% 29.88 in 2.5 mi NNW 12.7 mph - N/A   Light Drizzle
3:36 AM 48.2 °F - 46.4 °F 93% 29.87 in 3.0 mi North 13.8 mph - N/A   Drizzle
3:55 AM 48.2 °F - 46.4 °F 93% 29.86 in 3.0 mi North 10.4 mph - N/A   Drizzle
4:19 AM 46.4 °F 41.1 °F 44.6 °F 93% 29.87 in 3.0 mi NNW 11.5 mph - N/A   Light Drizzle
4:36 AM 46.4 °F 41.5 °F 44.6 °F 93% 29.87 in 3.0 mi NNW 10.4 mph - N/A   Drizzle
4:55 AM 46.4 °F 42.9 °F 44.6 °F 93% 29.87 in 3.0 mi NNW 6.9 mph - N/A   Light Drizzle
5:15 AM 44.6 °F 38.4 °F 44.6 °F 100% 29.86 in 3.0 mi North 12.7 mph 17.3 mph N/A   Light Drizzle
5:16 AM 44.6 °F 38.1 °F 44.6 °F 100% 29.86 in 3.0 mi North 13.8 mph 17.3 mph N/A   Light Drizzle
5:35 AM 44.6 °F 39.2 °F 44.6 °F 100% 29.86 in 4.0 mi NNW 10.4 mph - N/A   Overcast
5:57 AM 44.6 °F 40.2 °F 44.6 °F 100% 29.87 in 5.0 mi NNW 8.1 mph - N/A   Overcast
6:15 AM 44.6 °F 39.2 °F 42.8 °F 93% 29.88 in 4.0 mi NNW 10.4 mph - N/A   Overcast
6:36 AM 44.6 °F 38.4 °F 42.8 °F 93% 29.88 in 3.0 mi NNW 12.7 mph 17.3 mph N/A   Light Drizzle
6:55 AM 44.6 °F 38.4 °F 42.8 °F 93% 29.88 in 3.0 mi NNW 12.7 mph 17.3 mph N/A   Light Drizzle
6:56 AM 44.6 °F 38.8 °F 42.8 °F 93% 29.87 in 3.0 mi NNW 11.5 mph 17.3 mph N/A   Light Drizzle
7:19 AM 44.6 °F 38.8 °F 42.8 °F 93% 29.85 in 4.0 mi NNW 11.5 mph - N/A   Overcast
7:36 AM 44.6 °F 39.7 °F 42.8 °F 93% 29.88 in 4.0 mi NNW 9.2 mph - N/A   Overcast
7:56 AM 44.6 °F 40.2 °F 42.8 °F 93% 29.88 in 3.0 mi NNW 8.1 mph - N/A   Overcast
8:15 AM 42.8 °F 37.0 °F 42.8 °F 100% 29.85 in 2.0 mi North 10.4 mph - N/A   Drizzle
8:16 AM 42.8 °F 37.5 °F 42.8 °F 100% 29.85 in 2.0 mi North 9.2 mph - N/A   Drizzle
8:35 AM 42.8 °F 36.6 °F 42.8 °F 100% 29.86 in 2.0 mi NNW 11.5 mph - N/A   Overcast
8:39 AM 42.8 °F 36.6 °F 42.8 °F 100% 29.87 in 2.0 mi NNW 11.5 mph 16.1 mph N/A   Overcast
8:58 AM 42.8 °F 35.4 °F 42.8 °F 100% 29.88 in 3.0 mi NNW 15.0 mph 18.4 mph N/A   Overcast
9:15 AM 42.8 °F 35.4 °F 42.8 °F 100% 29.89 in 2.5 mi NW 15.0 mph 19.6 mph N/A   Overcast
9:35 AM 42.8 °F 35.1 °F 41.0 °F 93% 29.89 in 1.2 mi NW 16.1 mph - N/A   Drizzle
9:36 AM 42.8 °F 35.4 °F 41.0 °F 93% 29.89 in 1.2 mi NW 15.0 mph 18.4 mph N/A   Drizzle
9:55 AM 42.8 °F 35.8 °F 42.8 °F 100% 29.89 in 1.8 mi NW 13.8 mph 17.3 mph N/A   Light Drizzle
9:56 AM 42.8 °F 35.4 °F 42.8 °F 100% 29.89 in 1.8 mi NW 15.0 mph - N/A   Light Drizzle
10:36 AM 42.8 °F 35.4 °F 41.0 °F 93% 29.89 in 1.2 mi NNW 15.0 mph 19.6 mph N/A   Heavy Drizzle
10:55 AM 42.8 °F 35.4 °F 41.0 °F 93% 29.88 in 1.8 mi North 15.0 mph 21.9 mph N/A Rain Rain
11:15 AM 42.8 °F 35.4 °F 41.0 °F 93% 29.88 in 4.0 mi NNW 15.0 mph 19.6 mph N/A   Overcast
11:16 AM 42.8 °F 35.4 °F 41.0 °F 93% 29.89 in 4.0 mi NNW 15.0 mph 19.6 mph N/A   Overcast
11:35 AM 42.8 °F 35.1 °F 41.0 °F 93% 29.88 in 3.0 mi NNW 16.1 mph 19.6 mph N/A   Overcast
11:57 AM 42.8 °F 35.1 °F 41.0 °F 93% 29.86 in 1.8 mi NNW 16.1 mph 20.7 mph N/A   Light Drizzle
12:15 PM 42.8 °F 35.8 °F 41.0 °F 93% 29.86 in 1.8 mi NNW 13.8 mph - N/A   Drizzle
12:35 PM 42.8 °F 35.8 °F 41.0 °F 93% 29.85 in 2.5 mi NNW 13.8 mph 19.6 mph N/A Rain Rain
12:55 PM 41.0 °F 33.5 °F 41.0 °F 100% 29.84 in 2.0 mi NNW 13.8 mph - N/A Rain Light Rain
12:59 PM 41.0 °F 32.5 °F 41.0 °F 100% 29.83 in 2.0 mi NNW 17.3 mph - N/A Rain Rain
1:16 PM 41.0 °F 33.5 °F 41.0 °F 100% 29.83 in 2.0 mi NNW 13.8 mph - N/A Rain Rain
1:36 PM 41.0 °F 32.5 °F 39.2 °F 93% 29.82 in 2.0 mi NNW 17.3 mph 20.7 mph N/A   Drizzle
2:15 PM 41.0 °F 32.8 °F 39.2 °F 93% 29.83 in 1.8 mi NW 16.1 mph 21.9 mph N/A   Drizzle
2:37 PM 39.2 °F 30.8 °F 39.2 °F 100% 29.83 in 1.5 mi NW 15.0 mph - 0.01 in Rain Light Rain
2:56 PM 39.2 °F 30.8 °F 39.2 °F 100% 29.83 in 1.8 mi NW 15.0 mph 19.6 mph N/A   Heavy Drizzle
3:15 PM 39.2 °F 31.2 °F 39.2 °F 100% 29.83 in 1.5 mi NW 13.8 mph 19.6 mph N/A Rain Rain
3:16 PM 39.2 °F 30.5 °F 39.2 °F 100% 29.83 in 1.5 mi NW 16.1 mph 23.0 mph 0.02 in Rain Light Rain
3:35 PM 39.2 °F 30.8 °F 39.2 °F 100% 29.83 in 2.0 mi NW 15.0 mph 20.7 mph N/A Rain , Thunderstorm Light Thunderstorms and Rain
3:36 PM 39.2 °F 30.5 °F 39.2 °F 100% 29.83 in 2.0 mi NW 16.1 mph 20.7 mph 0.01 in Rain , Thunderstorm Light Thunderstorms and Rain
3:59 PM 39.2 °F 31.6 °F 37.4 °F 93% 29.82 in 1.5 mi NW 12.7 mph - N/A   Overcast
4:17 PM 39.2 °F 32.5 °F 37.4 °F 93% 29.81 in 1.5 mi NW 10.4 mph 18.4 mph N/A Rain Light Rain
4:36 PM 39.2 °F 31.2 °F 39.2 °F 100% 29.81 in 1.5 mi NW 13.8 mph 19.6 mph N/A   Overcast
4:55 PM 39.2 °F 31.6 °F 37.4 °F 93% 29.81 in 10.0 mi NW 12.7 mph 19.6 mph N/A   Drizzle
4:56 PM 39.2 °F 30.8 °F 37.4 °F 93% 29.81 in 10.0 mi NW 15.0 mph 21.9 mph N/A   Drizzle
5:15 PM 39.2 °F 31.2 °F 37.4 °F 93% 29.82 in 2.0 mi NW 13.8 mph 21.9 mph N/A Rain Rain
5:19 PM 39.2 °F 30.8 °F 37.4 °F 93% 29.82 in 2.5 mi NW 15.0 mph 20.7 mph 0.04 in Rain Light Rain
5:38 PM 39.2 °F 30.5 °F 37.4 °F 93% 29.82 in 7.0 mi NW 16.1 mph 25.3 mph 0.04 in   Drizzle
5:55 PM 39.2 °F 31.2 °F 37.4 °F 93% 29.82 in 5.0 mi NW 13.8 mph 18.4 mph 0.04 in   Drizzle
6:15 PM 39.2 °F 31.2 °F 37.4 °F 93% 29.82 in 5.0 mi NW 13.8 mph 21.9 mph N/A Rain Rain
6:16 PM 39.2 °F 31.2 °F 37.4 °F 93% 29.82 in 5.0 mi WNW 13.8 mph 19.6 mph 0.01 in Rain Rain
6:35 PM 37.4 °F 28.5 °F 37.4 °F 100% 29.82 in 7.0 mi WNW 15.0 mph 20.7 mph 0.01 in Rain Rain
6:58 PM 37.4 °F 28.2 °F 37.4 °F 100% 29.83 in 10.0 mi WNW 16.1 mph 20.7 mph N/A Rain Light Rain
7:16 PM 37.4 °F 28.5 °F 37.4 °F 100% 29.83 in 10.0 mi NW 15.0 mph 21.9 mph N/A   Drizzle
7:35 PM 37.4 °F 27.8 °F 37.4 °F 100% 29.83 in 10.0 mi NW 17.3 mph 21.9 mph N/A   Overcast
7:55 PM 37.4 °F 28.9 °F 35.6 °F 93% 29.83 in 10.0 mi NW 13.8 mph 20.7 mph N/A   Light Drizzle
7:56 PM 37.4 °F 29.3 °F 35.6 °F 93% 29.83 in 10.0 mi NW 12.7 mph 20.7 mph N/A   Light Drizzle
8:15 PM 37.4 °F 28.9 °F 37.4 °F 100% 29.82 in 7.0 mi NW 13.8 mph 19.6 mph N/A   Overcast
8:37 PM 37.4 °F 29.8 °F 37.4 °F 100% 29.83 in 7.0 mi NW 11.5 mph 18.4 mph N/A   Overcast
8:55 PM 37.4 °F 28.5 °F 35.6 °F 93% 29.83 in 5.0 mi WNW 15.0 mph 21.9 mph N/A   Light Drizzle
9:15 PM 37.4 °F 28.5 °F 35.6 °F 93% 29.84 in 4.0 mi WNW 15.0 mph 21.9 mph N/A Rain Rain
9:16 PM 37.4 °F 28.5 °F 35.6 °F 93% 29.84 in 4.0 mi WNW 15.0 mph 21.9 mph N/A Rain Rain
9:35 PM 37.4 °F 27.5 °F 35.6 °F 93% 29.84 in 3.0 mi NW 18.4 mph 21.9 mph N/A Rain Rain
9:36 PM 37.4 °F 27.2 °F 35.6 °F 93% 29.84 in 3.0 mi WNW 19.6 mph - 0.01 in Rain Rain
9:59 PM 37.4 °F 28.2 °F 35.6 °F 93% 29.82 in 5.0 mi NW 16.1 mph 19.6 mph N/A Rain Rain
10:16 PM 37.4 °F 29.8 °F 35.6 °F 93% 29.84 in 5.0 mi WNW 11.5 mph 19.6 mph 0.01 in Rain Light Rain
10:36 PM 37.4 °F 28.5 °F 35.6 °F 93% 29.83 in 7.0 mi WNW 15.0 mph 23.0 mph 0.01 in Rain Light Rain
10:55 PM 37.4 °F 27.5 °F 35.6 °F 93% 29.83 in 10.0 mi WNW 18.4 mph 24.2 mph 0.01 in Rain Light Rain
10:56 PM 37.4 °F 26.9 °F 35.6 °F 93% 29.83 in 10.0 mi WNW 20.7 mph 24.2 mph N/A   Light Drizzle
11:15 PM 37.4 °F 28.2 °F 35.6 °F 93% 29.84 in 10.0 mi WNW 16.1 mph 25.3 mph N/A   Overcast
11:19 PM 37.4 °F 27.5 °F 35.6 °F 93% 29.85 in 10.0 mi WNW 18.4 mph 25.3 mph N/A   Overcast
11:37 PM 37.4 °F 28.5 °F 35.6 °F 93% 29.84 in 7.0 mi WNW 15.0 mph 21.9 mph N/A   Overcast
11:56 PM 37.4 °F 27.5 °F 35.6 °F 93% 29.82 in 5.0 mi WNW 18.4 mph 26.5 mph N/A   Overcast